UTA9AS UWKD-UUWW

Flight info

Callsign UTA9AS
Flight time N/A
Altitude 30000
Route APTAR1G APTAR L158 DIMGI DIMGI3B
Aircraft B738/M-SDE2E3FGHIRWXY/LB1

Departure

Time 2026-05-07 19:00
Airport Kazan International Airport (UWKD)

Arrival

Time N/A
Airport Vnukovo International Airport (UUWW)
Time Latitude Longitude Altitude Speed Heading
2026-05-07 18:23 55.60762 49.29826 419 ft 0 kts 34°
2026-05-07 18:36 55.60762 49.29825 419 ft 0 kts 34°
2026-05-07 18:36 55.60751 49.29812 419 ft 2 kts 34°
2026-05-07 18:37 55.60738 49.29797 419 ft 2 kts 34°
2026-05-07 18:37 55.60726 49.29781 419 ft 2 kts 34°
2026-05-07 18:37 55.60715 49.29769 419 ft 1 kts 36°
2026-05-07 18:37 55.60706 49.29765 419 ft 2 kts 354°
2026-05-07 18:38 55.60692 49.29766 419 ft 2 kts
2026-05-07 18:38 55.60679 49.29764 419 ft 0 kts
2026-05-07 18:38 55.60670 49.29758 419 ft 2 kts 42°
2026-05-07 18:38 55.60659 49.29742 419 ft 2 kts 32°
2026-05-07 18:39 55.60650 49.29732 419 ft 0 kts 34°
2026-05-07 18:39 55.60649 49.29731 419 ft 0 kts 35°
2026-05-07 18:41 55.60654 49.29738 419 ft 3 kts 34°
2026-05-07 18:41 55.60687 49.29762 419 ft 7 kts 356°
2026-05-07 18:41 55.60722 49.29715 419 ft 5 kts 306°
2026-05-07 18:42 55.60743 49.29662 419 ft 4 kts 303°
2026-05-07 18:42 55.60761 49.29614 419 ft 4 kts 304°
2026-05-07 18:42 55.60789 49.29543 419 ft 7 kts 304°
2026-05-07 18:42 55.60812 49.29474 419 ft 5 kts 283°
2026-05-07 18:43 55.60801 49.29417 419 ft 4 kts 226°
2026-05-07 18:43 55.60765 49.29369 419 ft 8 kts 214°
2026-05-07 18:43 55.60718 49.29311 419 ft 7 kts 214°
2026-05-07 18:43 55.60679 49.29265 419 ft 6 kts 214°
2026-05-07 18:44 55.60646 49.29225 419 ft 6 kts 214°
2026-05-07 18:44 55.60610 49.29179 419 ft 5 kts 223°
2026-05-07 18:44 55.60578 49.29088 419 ft 16 kts 258°
2026-05-07 18:44 55.60584 49.28848 419 ft 17 kts 275°
2026-05-07 18:45 55.60593 49.28669 419 ft 13 kts 276°
2026-05-07 18:45 55.60628 49.28528 419 ft 11 kts 304°
2026-05-07 18:45 55.60672 49.28414 419 ft 10 kts 304°
2026-05-07 18:45 55.60712 49.28314 419 ft 9 kts 304°
2026-05-07 18:46 55.60748 49.28221 419 ft 9 kts 304°
2026-05-07 18:46 55.60783 49.28128 419 ft 8 kts 304°
2026-05-07 18:46 55.60815 49.28046 419 ft 9 kts 304°
2026-05-07 18:46 55.60861 49.27927 419 ft 11 kts 306°
2026-05-07 18:47 55.60904 49.27818 419 ft 10 kts 304°
2026-05-07 18:47 55.60944 49.27716 419 ft 9 kts 304°
2026-05-07 18:47 55.60978 49.27626 419 ft 8 kts 304°
2026-05-07 18:47 55.61009 49.27546 419 ft 8 kts 304°
2026-05-07 18:48 55.61040 49.27465 419 ft 7 kts 304°
2026-05-07 18:48 55.61066 49.27398 419 ft 5 kts 304°
2026-05-07 18:48 55.61096 49.27321 419 ft 12 kts 304°
2026-05-07 18:48 55.61141 49.27205 419 ft 10 kts 304°
2026-05-07 18:49 55.61182 49.27099 419 ft 10 kts 304°
2026-05-07 18:49 55.61219 49.27005 419 ft 9 kts 304°
2026-05-07 18:49 55.61271 49.26872 419 ft 15 kts 304°
2026-05-07 18:49 55.61330 49.26721 419 ft 14 kts 304°
2026-05-07 18:50 55.61382 49.26586 419 ft 12 kts 304°
2026-05-07 18:50 55.61429 49.26465 419 ft 11 kts 304°
2026-05-07 18:50 55.61470 49.26356 419 ft 10 kts 304°
2026-05-07 18:50 55.61509 49.26259 419 ft 10 kts 304°
2026-05-07 18:51 55.61561 49.26124 419 ft 13 kts 304°
2026-05-07 18:51 55.61609 49.25998 419 ft 11 kts 303°
2026-05-07 18:51 55.61652 49.25885 419 ft 10 kts 304°
2026-05-07 18:51 55.61699 49.25765 419 ft 13 kts 304°
2026-05-07 18:52 55.61751 49.25632 419 ft 12 kts 304°
2026-05-07 18:52 55.61798 49.25513 419 ft 11 kts 304°
2026-05-07 18:52 55.61840 49.25407 419 ft 9 kts 303°
2026-05-07 18:52 55.61848 49.25303 419 ft 8 kts 246°
2026-05-07 18:53 55.61811 49.25245 419 ft 6 kts 214°
2026-05-07 18:53 55.61808 49.25241 419 ft 0 kts 214°
2026-05-07 18:54 55.61808 49.25240 419 ft 0 kts 214°
2026-05-07 18:56 55.61807 49.25240 419 ft 0 kts 214°
2026-05-07 18:56 55.61801 49.25232 419 ft 5 kts 214°
2026-05-07 18:57 55.61738 49.25157 419 ft 10 kts 213°
2026-05-07 18:57 55.61683 49.25151 419 ft 7 kts 144°
2026-05-07 18:57 55.61651 49.25217 419 ft 6 kts 124°
2026-05-07 18:57 55.61644 49.25235 419 ft 0 kts 124°
2026-05-07 18:58 55.61643 49.25238 419 ft 1 kts 124°
2026-05-07 18:59 55.61546 49.25494 419 ft 58 kts 123°
2026-05-07 18:59 55.61195 49.26409 419 ft 118 kts 123°
2026-05-07 18:59 55.60638 49.27862 424 ft 166 kts 123°
2026-05-07 18:59 55.59946 49.29631 780 ft 178 kts 123°
2026-05-07 19:00 55.59260 49.31370 1527 ft 176 kts 122°
2026-05-07 19:00 55.58553 49.33207 2040 ft 188 kts 121°
2026-05-07 19:00 55.57807 49.35138 2610 ft 195 kts 122°
2026-05-07 19:00 55.57030 49.37133 3237 ft 199 kts 123°
2026-05-07 19:01 55.56247 49.39136 3813 ft 204 kts 122°
2026-05-07 19:01 55.55442 49.41197 4395 ft 208 kts 122°
2026-05-07 19:01 55.54452 49.43195 4769 ft 226 kts 143°
2026-05-07 19:01 55.52928 49.44097 5129 ft 244 kts 177°
2026-05-07 19:02 55.51214 49.43475 5451 ft 265 kts 206°
2026-05-07 19:02 55.49721 49.41553 5923 ft 277 kts 230°
2026-05-07 19:02 55.48762 49.38542 6451 ft 284 kts 251°
2026-05-07 19:02 55.47985 49.35389 7128 ft 289 kts 236°
2026-05-07 19:03 55.46497 49.33067 7804 ft 294 kts 208°
2026-05-07 19:03 55.44544 49.31813 7972 ft 307 kts 193°
2026-05-07 19:03 55.42469 49.30681 7933 ft 312 kts 206°
2026-05-07 19:03 55.40810 49.28383 7934 ft 303 kts 235°
2026-05-07 19:04 55.40056 49.25077 7977 ft 289 kts 267°
2026-05-07 19:04 55.40209 49.21643 7979 ft 281 kts 282°
2026-05-07 19:04 55.40561 49.18254 7952 ft 281 kts 282°
2026-05-07 19:04 55.40888 49.14866 7952 ft 282 kts 281°
2026-05-07 19:05 55.41196 49.11449 7948 ft 285 kts 280°
2026-05-07 19:05 55.41500 49.08006 7936 ft 284 kts 281°
2026-05-07 19:05 55.41801 49.04607 7968 ft 282 kts 281°
2026-05-07 19:05 55.42105 49.01210 7957 ft 282 kts 281°
2026-05-07 19:06 55.42392 48.97783 7952 ft 282 kts 279°
2026-05-07 19:06 55.42834 48.90963 7950 ft 282 kts 277°
2026-05-07 19:06 55.43045 48.87548 7949 ft 282 kts 278°
2026-05-07 19:07 55.43269 48.84074 7964 ft 283 kts 278°
2026-05-07 19:07 55.43495 48.80643 7961 ft 284 kts 278°
2026-05-07 19:07 55.43719 48.77227 7954 ft 281 kts 278°
2026-05-07 19:07 55.43942 48.73792 7980 ft 290 kts 278°
2026-05-07 19:08 55.44169 48.70293 8792 ft 286 kts 278°
2026-05-07 19:08 55.44389 48.66873 9558 ft 286 kts 278°
2026-05-07 19:08 55.44611 48.63411 10238 ft 288 kts 278°
2026-05-07 19:08 55.44843 48.59782 10572 ft 304 kts 278°
2026-05-07 19:09 55.45084 48.56017 10916 ft 318 kts 278°
2026-05-07 19:09 55.45464 48.52105 11282 ft 331 kts 284°
2026-05-07 19:09 55.46073 48.48132 11579 ft 345 kts 288°
2026-05-07 19:09 55.46805 48.44041 11858 ft 361 kts 289°
2026-05-07 19:10 55.47591 48.39787 12243 ft 372 kts 289°
2026-05-07 19:10 55.48386 48.35429 12941 ft 374 kts 288°
2026-05-07 19:10 55.49164 48.31078 13602 ft 378 kts 287°
2026-05-07 19:10 55.49939 48.26669 14284 ft 381 kts 287°
2026-05-07 19:11 55.50711 48.22212 14985 ft 384 kts 287°
2026-05-07 19:11 55.51485 48.17719 15664 ft 387 kts 287°
2026-05-07 19:11 55.52272 48.13126 16342 ft 391 kts 287°
2026-05-07 19:11 55.53054 48.08552 17011 ft 393 kts 287°
2026-05-07 19:12 55.53842 48.03937 17629 ft 397 kts 287°
2026-05-07 19:12 55.54643 47.99232 17908 ft 408 kts 287°
2026-05-07 19:12 55.55465 47.94392 17942 ft 412 kts 287°
2026-05-07 19:12 55.56279 47.89587 17949 ft 408 kts 287°
2026-05-07 19:13 55.57077 47.84861 17941 ft 401 kts 287°
2026-05-07 19:13 55.57859 47.80204 17949 ft 396 kts 286°
2026-05-07 19:13 55.58644 47.75515 18020 ft 407 kts 287°
2026-05-07 19:13 55.59439 47.70748 18947 ft 402 kts 286°
2026-05-07 19:14 55.60232 47.65984 19456 ft 408 kts 286°
2026-05-07 19:14 55.61027 47.61217 20123 ft 409 kts 286°
2026-05-07 19:14 55.61832 47.56385 20645 ft 414 kts 286°
2026-05-07 19:14 55.62653 47.51434 21195 ft 418 kts 286°
2026-05-07 19:15 55.63462 47.46529 21768 ft 420 kts 286°
2026-05-07 19:15 55.64276 47.41581 22293 ft 424 kts 286°
2026-05-07 19:15 55.65098 47.36575 22869 ft 426 kts 286°
2026-05-07 19:15 55.65916 47.31573 23344 ft 430 kts 285°
2026-05-07 19:16 55.66753 47.26443 23894 ft 432 kts 285°
2026-05-07 19:16 55.67582 47.21348 24307 ft 437 kts 285°
2026-05-07 19:16 55.68419 47.16181 24864 ft 438 kts 285°
2026-05-07 19:16 55.69255 47.11004 25283 ft 443 kts 285°
2026-05-07 19:17 55.70101 47.05764 25788 ft 445 kts 285°
2026-05-07 19:17 55.70952 47.00489 26243 ft 448 kts 285°
2026-05-07 19:17 55.71800 46.95210 26688 ft 450 kts 286°
2026-05-07 19:17 55.72648 46.89915 27058 ft 454 kts 286°
2026-05-07 19:18 55.73515 46.84481 27640 ft 453 kts 286°
2026-05-07 19:18 55.74359 46.79179 28396 ft 448 kts 286°
2026-05-07 19:18 55.75200 46.73874 28908 ft 448 kts 286°
2026-05-07 19:18 55.76032 46.68612 29527 ft 445 kts 286°
2026-05-07 19:19 55.76857 46.63382 29915 ft 446 kts 286°
2026-05-07 19:19 55.77691 46.58069 29951 ft 450 kts 286°
2026-05-07 19:19 55.79178 46.47333 29958 ft 446 kts 281°
2026-05-07 19:20 55.79876 46.36483 29956 ft 441 kts 275°
2026-05-07 19:20 55.80221 46.25632 29955 ft 443 kts 273°
2026-05-07 19:21 55.80524 46.14682 29951 ft 445 kts 273°
2026-05-07 19:21 55.80833 46.03763 29944 ft 444 kts 273°
2026-05-07 19:22 55.81150 45.92810 29944 ft 442 kts 273°
2026-05-07 19:22 55.81465 45.81894 29931 ft 446 kts 273°
2026-05-07 19:23 55.81776 45.70945 29925 ft 444 kts 273°
2026-05-07 19:23 55.82076 45.60039 29919 ft 443 kts 273°
2026-05-07 19:24 55.82370 45.49089 29915 ft 447 kts 273°
2026-05-07 19:24 55.82652 45.38095 29913 ft 448 kts 274°
2026-05-07 19:25 55.82923 45.27046 29915 ft 447 kts 273°
2026-05-07 19:25 55.83184 45.16044 29910 ft 449 kts 272°
2026-05-07 19:26 55.83440 45.04963 29903 ft 449 kts 272°
2026-05-07 19:26 55.83684 44.93899 29905 ft 450 kts 273°
2026-05-07 19:27 55.83924 44.82853 29906 ft 449 kts 273°